• In Germany
  • List of Countries
  • For 7 days
  • Water Temperature
  • Satellite Maps
  • Weather Map
  • Weather Widgets
  • user-avatar
    Login

    Hourly Weather Bulyk

    Today, 16 October, Tuesday

    Time Temperature Precipitation Wind Pressure Humidity
    00:00 +2°C° 0 mm 2 mps 656 mmHg 81%
    01:00 +1°C° 0 mm 2 mps 657 mmHg 82%
    02:00 +1°C° 0 mm 2 mps 657 mmHg 84%
    03:00 -1°C° 0 mm 2 mps 657 mmHg 85%
    04:00 +1°C° 0 mm 1 mps 657 mmHg 86%
    05:00 +1°C° 0 mm 1 mps 657 mmHg 86%
    06:00 +1°C° 0 mm 1 mps 658 mmHg 86%
    07:00 +1°C° 0 mm 1 mps 657 mmHg 81%
    08:00 +3°C° 0 mm 1 mps 658 mmHg 72%
    09:00 +5°C° 0 mm 1 mps 658 mmHg 64%
    10:00 +8°C° 0 mm 1 mps 659 mmHg 56%
    11:00 +8°C° 0 mm 1 mps 658 mmHg 53%
    12:00 +9°C° 0 mm 1 mps 658 mmHg 51%
    13:00 +9°C° 0 mm 2 mps 658 mmHg 49%
    14:00 +9°C° 0 mm 1 mps 658 mmHg 51%
    15:00 +9°C° 0 mm 1 mps 657 mmHg 53%
    16:00 +9°C° 0 mm 1 mps 657 mmHg 56%
    17:00 +7°C° 0 mm 1 mps 657 mmHg 60%
    18:00 +5°C° 0 mm 1 mps 656 mmHg 65%
    19:00 +4°C° 0 mm 1 mps 656 mmHg 70%
    20:00 +3°C° 0 mm 1 mps 656 mmHg 71%
    21:00 +3°C° 0 mm 1 mps 656 mmHg 72%
    22:00 +3°C° 0 mm 1 mps 656 mmHg 73%
    23:00 +2°C° 0 mm 1 mps 656 mmHg 74%

    Tomorrow, 17 October, Wednesday

    Time Temperature Precipitation Wind Pressure Humidity
    00:00 +2°C° 0 mm 1 mps 655 mmHg 76%
    01:00 +2°C° 0 mm 1 mps 655 mmHg 77%
    02:00 +2°C° 0 mm 1 mps 655 mmHg 78%
    03:00 +1°C° 0 mm 1 mps 655 mmHg 79%
    04:00 +1°C° 0 mm 1 mps 654 mmHg 80%
    05:00 +1°C° 0 mm 1 mps 654 mmHg 80%
    06:00 +1°C° 0 mm 1 mps 655 mmHg 79%
    07:00 +1°C° 0 mm 1 mps 655 mmHg 79%
    08:00 +3°C° 0 mm 1 mps 655 mmHg 71%
    09:00 +5°C° 0 mm 2 mps 655 mmHg 63%
    10:00 +7°C° 0 mm 2 mps 656 mmHg 55%
    11:00 +8°C° 0 mm 2 mps 656 mmHg 51%
    12:00 +10°C° 0 mm 2 mps 656 mmHg 47%
    13:00 +12°C° 0 mm 2 mps 656 mmHg 43%
    14:00 +10°C° 0 mm 2 mps 656 mmHg 45%
    15:00 +11°C° 0 mm 1 mps 656 mmHg 48%
    16:00 +10°C° 0 mm 1 mps 656 mmHg 50%
    17:00 +9°C° 0 mm 1 mps 656 mmHg 55%
    18:00 +7°C° 0 mm 1 mps 656 mmHg 60%
    19:00 +5°C° 0 mm 1 mps 655 mmHg 65%
    20:00 +5°C° 0 mm 1 mps 655 mmHg 67%
    21:00 +4°C° 0 mm 1 mps 655 mmHg 69%
    22:00 +3°C° 0 mm 1 mps 656 mmHg 71%
    23:00 +3°C° 0 mm 1 mps 655 mmHg 72%

    Day after tomorrow, 18 October, Thursday

    Time Temperature Precipitation Wind Pressure Humidity
    00:00 +3°C° 0 mm 1 mps 655 mmHg 72%
    01:00 +3°C° 0 mm 1 mps 655 mmHg 73%
    02:00 +2°C° 0 mm 1 mps 655 mmHg 73%
    03:00 +2°C° 0 mm 1 mps 655 mmHg 73%
    04:00 +2°C° 0 mm 1 mps 655 mmHg 74%
    05:00 +2°C° 0 mm 1 mps 655 mmHg 73%
    06:00 +2°C° 0 mm 1 mps 655 mmHg 72%
    07:00 +2°C° 0 mm 1 mps 655 mmHg 71%
    08:00 +4°C° 0 mm 1 mps 656 mmHg 64%
    09:00 +5°C° 0 mm 2 mps 656 mmHg 56%
    10:00 +7°C° 0 mm 2 mps 657 mmHg 49%
    11:00 +9°C° 0 mm 2 mps 657 mmHg 45%
    12:00 +10°C° 0 mm 2 mps 656 mmHg 41%
    13:00 +11°C° 0 mm 3 mps 656 mmHg 37%
    14:00 +10°C° 0 mm 2 mps 656 mmHg 39%
    15:00 +10°C° 0 mm 2 mps 655 mmHg 41%
    16:00 +9°C° 0 mm 2 mps 655 mmHg 44%
    17:00 +7°C° 0 mm 2 mps 655 mmHg 47%
    18:00 +5°C° 0 mm 2 mps 655 mmHg 50%
    19:00 +4°C° 0 mm 2 mps 654 mmHg 53%
    20:00 +3°C° 0 mm 2 mps 654 mmHg 55%
    21:00 +2°C° 0 mm 2 mps 654 mmHg 57%
    22:00 +3°C° 0 mm 1 mps 654 mmHg 58%
    23:00 +2°C° 0 mm 1 mps 654 mmHg 60%

    19 October, Friday

    Time Temperature Precipitation Wind Pressure Humidity
    00:00 +2°C° 0 mm 1 mps 654 mmHg 61%
    01:00 +1°C° 0 mm 1 mps 654 mmHg 63%
    02:00 +1°C° 0 mm 1 mps 653 mmHg 64%
    03:00 +1°C° 0 mm 1 mps 653 mmHg 66%
    04:00 0°C° 0 mm 1 mps 653 mmHg 67%
    05:00 0°C° 0 mm 1 mps 653 mmHg 68%
    06:00 0°C° 0 mm 1 mps 653 mmHg 69%
    07:00 0°C° 0 mm 1 mps 653 mmHg 69%
    08:00 +1°C° 0 mm 2 mps 653 mmHg 61%
    09:00 +3°C° 0 mm 2 mps 653 mmHg 53%
    10:00 +5°C° 0 mm 2 mps 654 mmHg 44%
    11:00 +5°C° 0 mm 3 mps 653 mmHg 41%
    12:00 +7°C° 0 mm 3 mps 653 mmHg 37%
    13:00 +7°C° 0 mm 4 mps 653 mmHg 33%
    14:00 +8°C° 0 mm 3 mps 652 mmHg 35%
    15:00 +7°C° 0 mm 3 mps 652 mmHg 38%
    16:00 +7°C° 0 mm 2 mps 652 mmHg 40%
    17:00 +5°C° 0 mm 2 mps 651 mmHg 43%
    18:00 +4°C° 0 mm 1 mps 651 mmHg 46%
    19:00 +3°C° 0 mm 1 mps 651 mmHg 49%
    20:00 +2°C° 0 mm 1 mps 651 mmHg 50%
    21:00 +2°C° 0 mm 1 mps 651 mmHg 50%
    22:00 +1°C° 0 mm 0 mps 650 mmHg 51%
    23:00 +1°C° 0 mm 0 mps 650 mmHg 53%

    20 October, Saturday

    Time Temperature Precipitation Wind Pressure Humidity
    00:00 +2°C° 0 mm 1 mps 650 mmHg 54%
    01:00 +2°C° 0 mm 1 mps 650 mmHg 55%
    02:00 +2°C° 0 mm 1 mps 650 mmHg 59%
    03:00 +2°C° 0 mm 1 mps 650 mmHg 62%
    04:00 +1°C° 0 mm 1 mps 650 mmHg 66%
    05:00 +1°C° 0 mm 1 mps 650 mmHg 69%
    06:00 +1°C° 0 mm 1 mps 650 mmHg 71%
    07:00 +1°C° 0 mm 1 mps 650 mmHg 74%
    08:00 +2°C° 0 mm 1 mps 650 mmHg 71%
    09:00 +3°C° 0 mm 1 mps 651 mmHg 67%
    10:00 +4°C° 0 mm 1 mps 651 mmHg 64%
    11:00 +5°C° 0 mm 1 mps 651 mmHg 62%
    12:00 +6°C° 0 mm 1 mps 651 mmHg 60%
    13:00 +6°C° 0 mm 1 mps 651 mmHg 58%
    14:00 +6°C° 0 mm 1 mps 651 mmHg 60%
    15:00 +6°C° 0 mm 1 mps 651 mmHg 62%
    16:00 +5°C° 0 mm 1 mps 650 mmHg 64%
    17:00 +4°C° 0 mm 1 mps 650 mmHg 69%
    18:00 +3°C° 0 mm 1 mps 650 mmHg 74%
    19:00 +2°C° 0 mm 1 mps 650 mmHg 79%
    20:00 +1°C° 0 mm 1 mps 650 mmHg 81%
    21:00 +1°C° 0 mm 1 mps 650 mmHg 82%
    22:00 -1°C° 0 mm 0 mps 650 mmHg 84%
    23:00 -1°C° 0 mm 0 mps 649 mmHg 84%

    21 October, Sunday

    Time Temperature Precipitation Wind Pressure Humidity
    00:00 -1°C° 0 mm 0 mps 649 mmHg 85%
    01:00 -1°C° 0 mm 0 mps 649 mmHg 85%
    02:00 -1°C° 0 mm 0 mps 649 mmHg 86%
    03:00 -1°C° 0 mm 0 mps 649 mmHg 87%
    04:00 -1°C° 0 mm 0 mps 649 mmHg 87%
    05:00 -1°C° 0.1 mm 0 mps 649 mmHg 88%
    06:00 -1°C° 0.1 mm 0 mps 649 mmHg 89%
    07:00 -1°C° 0.1 mm 0 mps 649 mmHg 90%
    08:00 0°C° 0.1 mm 0 mps 649 mmHg 84%
    09:00 +1°C° 0.1 mm 0 mps 649 mmHg 79%
    10:00 +3°C° 0.1 mm 1 mps 649 mmHg 74%
    11:00 +4°C° 0.1 mm 1 mps 649 mmHg 71%
    12:00 +5°C° 0.1 mm 1 mps 649 mmHg 67%
    13:00 +5°C° 0.1 mm 1 mps 649 mmHg 64%
    14:00 +5°C° 0.2 mm 1 mps 649 mmHg 67%
    15:00 +3°C° 0.2 mm 2 mps 649 mmHg 70%
    16:00 +3°C° 0.2 mm 2 mps 649 mmHg 73%
    17:00 +1°C° 0.4 mm 3 mps 649 mmHg 76%
    18:00 0°C° 0.4 mm 3 mps 650 mmHg 79%
    19:00 -1°C° 0.4 mm 3 mps 650 mmHg 82%
    20:00 -2°C° 0.2 mm 3 mps 650 mmHg 83%
    21:00 -2°C° 0.2 mm 3 mps 650 mmHg 83%
    22:00 -2°C° 0.2 mm 2 mps 651 mmHg 83%
    23:00 -3°C° 0 mm 2 mps 651 mmHg 83%
    Show more